TimeEST,TemperatureF,Dew PointF,Humidity,Sea Level PressureIn,VisibilityMPH,Wind Direction,Wind SpeedMPH,Gust SpeedMPH,PrecipitationIn,Events,Conditions,WindDirDegrees,DateUTC
12:15 AM,6.3,2.1,83,30.14,10.0,SSW,9.2,-,N/A,,Scattered Clouds,210,2013-01-06 05:15:00
12:35 AM,8.2,3.7,82,30.14,10.0,SW,5.8,-,N/A,,Overcast,220,2013-01-06 05:35:00
12:55 AM,8.8,4.1,81,30.14,10.0,SSW,4.6,-,N/A,,Overcast,200,2013-01-06 05:55:00
1:15 AM,9.0,4.5,82,30.12,10.0,SW,5.8,-,N/A,,Overcast,220,2013-01-06 06:15:00
1:35 AM,10.2,5.5,81,30.11,10.0,SSE,3.5,-,N/A,,Overcast,150,2013-01-06 06:35:00
1:55 AM,11.3,6.4,81,30.10,10.0,SW,6.9,-,N/A,,Overcast,230,2013-01-06 06:55:00
2:15 AM,12.2,7.3,81,30.09,10.0,South,3.5,-,N/A,,Overcast,180,2013-01-06 07:15:00
2:35 AM,12.7,7.3,79,30.09,10.0,SSW,6.9,-,N/A,,Overcast,210,2013-01-06 07:35:00
2:55 AM,14.5,8.2,76,30.08,10.0,South,5.8,-,N/A,,Overcast,190,2013-01-06 07:55:00
3:15 AM,14.2,7.7,75,30.05,10.0,SSW,3.5,-,N/A,,Mostly Cloudy,210,2013-01-06 08:15:00
3:35 AM,11.3,6.3,80,30.05,10.0,SW,5.8,-,N/A,,Mostly Cloudy,220,2013-01-06 08:35:00
3:55 AM,11.8,6.6,80,30.04,10.0,Calm,Calm,-,N/A,,Mostly Cloudy,0,2013-01-06 08:55:00
4:15 AM,11.5,6.8,81,30.02,10.0,South,3.5,-,N/A,,Mostly Cloudy,190,2013-01-06 09:15:00
4:35 AM,14.4,9.0,79,30.01,10.0,Calm,Calm,-,N/A,,Overcast,0,2013-01-06 09:35:00
4:55 AM,14.9,9.3,79,30.00,5.0,SW,3.5,-,N/A,Snow,Light Snow,220,2013-01-06 09:55:00
5:15 AM,15.1,9.9,80,29.99,7.0,SW,3.5,-,N/A,Snow,Light Snow,230,2013-01-06 10:15:00
5:35 AM,16.3,11.3,81,29.98,4.0,East,3.5,-,N/A,Snow,Light Snow,80,2013-01-06 10:35:00
5:55 AM,16.3,11.8,82,29.98,7.0,SSE,3.5,-,N/A,Snow,Light Snow,150,2013-01-06 10:55:00
6:15 AM,17.6,13.1,83,29.97,7.0,South,3.5,-,N/A,Snow,Light Snow,180,2013-01-06 11:15:00
6:35 AM,18.5,13.5,81,29.97,10.0,South,3.5,-,N/A,,Overcast,180,2013-01-06 11:35:00
6:55 AM,18.9,13.8,81,29.97,5.0,Calm,Calm,-,N/A,Snow,Light Snow,0,2013-01-06 11:55:00
7:15 AM,18.9,14.5,83,29.97,2.0,SSE,4.6,-,N/A,Snow,Light Snow,160,2013-01-06 12:15:00
7:35 AM,17.2,13.3,84,29.96,2.5,SE,5.8,-,N/A,Snow,Light Snow,140,2013-01-06 12:35:00
7:55 AM,17.8,14.4,86,29.95,2.0,SSE,4.6,-,N/A,Snow,Light Snow,160,2013-01-06 12:55:00
8:15 AM,18.5,14.9,86,29.95,4.0,SSE,4.6,-,N/A,Snow,Light Snow,150,2013-01-06 13:15:00
8:55 AM,18.3,14.7,86,29.95,2.5,SE,5.8,-,N/A,Snow,Light Snow,140,2013-01-06 13:55:00
9:15 AM,20.3,16.0,83,29.95,5.0,South,4.6,-,N/A,Snow,Light Snow,170,2013-01-06 14:15:00
9:35 AM,21.7,16.3,80,29.94,10.0,South,5.8,-,N/A,,Overcast,180,2013-01-06 14:35:00
9:55 AM,21.9,16.5,80,29.95,7.0,South,6.9,-,N/A,Snow,Light Snow,170,2013-01-06 14:55:00
10:35 AM,23.0,17.4,79,29.92,2.5,South,6.9,-,N/A,Snow,Light Snow,170,2013-01-06 15:35:00
10:55 AM,23.4,18.1,80,29.91,2.5,South,5.8,-,N/A,Snow,Light Snow,180,2013-01-06 15:55:00
11:15 AM,23.9,18.5,80,29.90,4.0,South,3.5,-,N/A,Snow,Light Snow,190,2013-01-06 16:15:00
11:35 AM,23.9,18.9,81,29.89,7.0,South,3.5,-,N/A,Snow,Light Snow,170,2013-01-06 16:35:00
11:55 AM,24.8,19.4,80,29.87,5.0,SSE,6.9,-,N/A,Snow,Light Snow,160,2013-01-06 16:55:00
12:15 PM,25.5,19.6,78,29.87,4.0,South,5.8,-,N/A,Snow,Light Snow,190,2013-01-06 17:15:00
12:35 PM,25.3,20.3,81,29.86,5.0,SSE,5.8,-,N/A,Snow,Light Snow,160,2013-01-06 17:35:00
12:55 PM,25.7,21.0,82,29.86,1.5,South,5.8,-,N/A,Snow,Light Snow,170,2013-01-06 17:55:00
1:15 PM,26.2,21.9,84,29.85,1.5,SSE,4.6,-,N/A,Snow,Light Snow,150,2013-01-06 18:15:00
1:35 PM,26.2,22.1,84,29.84,2.0,SSE,5.8,-,N/A,Snow,Light Snow,150,2013-01-06 18:35:00
1:55 PM,26.6,22.5,84,29.85,2.0,South,4.6,-,N/A,Snow,Light Snow,180,2013-01-06 18:55:00
2:15 PM,27.1,23.0,84,29.85,0.8,South,5.8,-,N/A,Snow,Light Snow,190,2013-01-06 19:15:00
2:35 PM,26.6,23.0,86,29.85,1.0,South,4.6,-,N/A,Snow,Light Snow,180,2013-01-06 19:35:00
2:55 PM,27.0,23.5,87,29.85,1.0,South,3.5,-,N/A,Snow,Light Snow,170,2013-01-06 19:55:00
3:15 PM,27.1,23.7,87,29.85,3.0,Calm,Calm,-,N/A,Snow,Light Snow,0,2013-01-06 20:15:00
3:55 PM,27.1,23.5,86,29.84,2.0,South,4.6,-,N/A,Snow,Light Snow,170,2013-01-06 20:55:00
4:15 PM,27.1,23.9,88,29.85,1.2,South,5.8,-,N/A,Snow,Light Snow,180,2013-01-06 21:15:00
4:35 PM,26.8,23.9,89,29.85,1.8,Calm,Calm,-,N/A,Snow,Light Snow,0,2013-01-06 21:35:00
4:55 PM,26.6,23.9,90,29.85,1.8,SSE,3.5,-,N/A,Snow,Light Snow,160,2013-01-06 21:55:00
5:15 PM,26.6,23.9,90,29.85,1.8,SSE,3.5,-,N/A,Snow,Light Snow,160,2013-01-06 22:15:00
5:55 PM,26.8,24.1,90,29.86,2.0,Calm,Calm,-,N/A,Snow,Light Snow,0,2013-01-06 22:55:00
6:15 PM,27.0,24.3,90,29.86,1.5,Calm,Calm,-,N/A,Snow,Light Snow,0,2013-01-06 23:15:00
6:35 PM,27.1,24.6,90,29.86,1.5,Calm,Calm,-,N/A,Snow,Light Snow,0,2013-01-06 23:35:00
6:55 PM,27.0,24.6,91,29.86,1.8,Calm,Calm,-,N/A,Snow,Light Snow,0,2013-01-06 23:55:00
7:15 PM,27.0,24.6,91,29.87,1.2,Calm,Calm,-,N/A,Snow,Light Snow,0,2013-01-07 00:15:00
7:35 PM,26.6,24.4,92,29.87,1.5,Calm,Calm,-,N/A,Snow,Light Snow,0,2013-01-07 00:35:00
7:55 PM,26.6,24.4,92,29.87,3.0,Calm,Calm,-,N/A,Snow,Light Snow,0,2013-01-07 00:55:00
8:35 PM,26.6,24.1,90,29.87,1.8,Calm,Calm,-,N/A,Snow,Light Snow,0,2013-01-07 01:35:00
9:15 PM,26.6,24.4,92,29.87,1.8,Calm,Calm,-,N/A,Snow,Light Snow,0,2013-01-07 02:15:00
9:55 PM,26.6,24.6,92,29.88,1.8,North,3.5,-,N/A,Snow,Light Snow,360,2013-01-07 02:55:00
10:55 PM,26.2,24.1,92,29.90,5.0,North,5.8,-,N/A,Snow,Light Snow,350,2013-01-07 03:55:00
11:15 PM,25.9,23.5,91,29.91,4.0,North,6.9,-,N/A,Snow,Light Snow,350,2013-01-07 04:15:00
11:35 PM,25.0,22.5,90,29.92,4.0,North,9.2,-,N/A,Snow,Light Snow,350,2013-01-07 04:35:00
11:55 PM,23.9,21.2,89,29.92,7.0,NNW,9.2,-,N/A,Snow,Light Snow,340,2013-01-07 04:55:00